K8FAM-13 Weather Reports


time (UTC)temp
C
wind
direction
speed
KPH
gust
KPH
rain 1hr
cm
rain 24hr
cm
rain mn
cm
humidity
%
barometer
mb
20260505173055 22 262 6.4 20.9 0.00 0.15 0.15 44 1007.9
20260505171601 20 310 3.2 16.1 0.00 0.15 0.15 46 1008.0
20260505170052 20 233 4.8 27.4 0.00 0.15 0.15 45 1007.8
20260505164553 20 211 6.4 22.5 0.00 0.15 0.15 43 1007.8
20260505163051 21 284 6.4 27.4 0.00 0.15 0.15 44 1007.8
20260505161552 21 191 6.4 27.4 0.00 0.15 0.15 42 1007.6
20260505153047 21 229 11.3 32.2 0.00 0.15 0.15 43 1008.1
20260505151546 21 229 12.9 25.7 0.00 0.15 0.15 44 1007.8
20260505124522 18 154 8.0 20.9 0.00 0.15 0.15 48 1007.8
20260505123020 18 315 6.4 17.7 0.00 0.15 0.15 49 1008.0
20260505121514 17 283 3.2 14.5 0.00 0.15 0.15 50 1008.0
20260505114509 17 273 3.2 14.5 0.00 0.15 0.15 51 1008.0
20260505113006 16 273 3.2 17.7 0.00 0.15 0.15 51 1008.0
20260505111506 16 191 4.8 14.5 0.00 0.15 0.15 51 1007.9
20260505101602 16 251 3.2 12.9 0.00 0.15 0.15 52 1007.3
20260505100056 15 235 4.8 14.5 0.00 0.15 0.15 52 1007.1
20260505094555 16 188 4.8 11.3 0.00 0.15 0.15 52 1006.9
20260505093055 16 251 3.2 16.1 0.00 0.15 0.15 52 1006.8
20260505091557 16 190 1.6 17.7 0.00 0.15 0.15 52 1006.8
20260505090057 16 205 1.6 16.1 0.00 0.15 0.15 52 1006.6
20260505084602 15 255 1.6 14.5 0.00 0.15 0.15 52 1006.7
20260505083105 15 236 4.8 14.5 0.00 0.15 0.15 53 1006.7
20260505081552 15 263 3.2 17.7 0.00 0.15 0.15 55 1006.6
20260505080055 15 254 4.8 9.7 0.00 0.15 0.15 56 1006.5
20260505074550 15 3 3.2 8.0 0.00 0.15 0.15 56 1006.5
20260505073057 15 153 1.6 6.4 0.00 0.15 0.15 56 1006.3
20260505071548 15 299 4.8 17.7 0.03 0.15 0.15 55 1006.4
20260505070047 15 45 3.2 14.5 0.15 0.15 0.15 55 1006.4
20260505064614 15 208 6.4 20.9 0.15 0.15 0.15 56 1006.6
20260505063044 15 292 8.0 22.5 0.15 0.15 0.15 55 1006.7
20260505061542 15 161 3.2 16.1 0.13 0.13 0.13 57 1007.0
20260505060038 17 289 3.2 8.0 0.00 0.00 0.00 51 1007.2
20260505054546 16 102 1.6 12.9 0.00 0.00 0.00 51 1006.7
20260505053035 16 279 1.6 16.1 0.00 0.00 0.00 52 1006.8
20260505051534 16 291 3.2 9.7 0.00 0.00 0.00 52 1006.8
20260505041530 16 291 0.0 8.0 0.00 0.00 0.00 52 1007.3
20260505040031 16 273 1.6 11.3 0.00 0.00 0.00 52 1007.2
20260505034533 16 165 1.6 9.7 0.00 0.00 0.00 52 1007.2
20260505033029 16 178 1.6 8.0 0.00 0.00 0.00 52 1007.2
20260505031526 16 258 1.6 8.0 0.00 0.00 0.00 52 1007.2
20260505030041 17 264 1.6 4.8 0.00 0.00 0.00 51 1007.5
20260505024525 17 264 0.0 4.8 0.00 0.00 0.00 50 1007.7
20260505023027 17 203 0.0 8.0 0.00 0.00 0.00 49 1007.7
20260505021525 17 187 0.0 11.3 0.00 0.00 0.00 48 1007.7
20260505020024 18 237 1.6 9.7 0.00 0.00 0.00 48 1007.6
20260505014525 18 275 1.6 16.1 0.00 0.00 0.00 48 1007.5
20260505013023 18 249 3.2 8.0 0.00 0.00 0.00 47 1007.2
20260505011524 18 165 4.8 14.5 0.00 0.00 0.00 46 1007.4
20260505010022 18 256 1.6 17.7 0.00 0.00 0.00 46 1007.2
20260505004536 19 323 3.2 16.1 0.00 0.00 0.00 45 1007.3
20260505003020 19 208 6.4 19.3 0.00 0.00 0.00 44 1007.3
20260505001520 19 289 3.2 19.3 0.00 0.00 0.00 44 1006.9
20260505000019 20 253 6.4 20.9 0.00 0.00 0.00 43 1007.0
20260504234520 20 181 3.2 24.1 0.00 0.00 0.00 43 1006.8
20260504233022 20 183 8.0 25.7 0.00 0.00 0.00 42 1006.9
20260504231516 20 258 6.4 17.7 0.00 0.00 0.00 42 1007.0
20260504230016 20 278 4.8 22.5 0.00 0.00 0.00 41 1007.2
20260504224515 21 224 9.7 27.4 0.00 0.00 0.00 41 1007.2
20260504223014 21 275 8.0 33.8 0.00 0.00 0.00 40 1007.2
20260504221513 21 206 4.8 19.3 0.00 0.00 0.00 40 1007.3
20260504220013 21 187 6.4 16.1 0.00 0.00 0.00 41 1007.4
20260504214511 21 258 4.8 27.4 0.00 0.00 0.00 41 1007.3
20260504213026 21 272 8.0 27.4 0.00 0.00 0.00 40 1007.3
20260504211513 22 238 3.2 25.7 0.00 0.00 0.00 40 1007.2
20260504210010 22 246 6.4 24.1 0.00 0.00 0.00 38 1007.1
20260504204509 22 264 1.6 12.9 0.00 0.00 0.00 40 1007.2
20260504203007 22 125 11.3 30.6 0.00 0.00 0.00 37 1007.3
20260504201504 22 277 4.8 19.3 0.00 0.00 0.00 40 1007.4
20260504200006 22 152 3.2 17.7 0.00 0.00 0.00 44 1007.6
20260504194606 22 271 6.4 24.1 0.00 0.00 0.00 41 1007.7
20260504193059 22 183 6.4 20.9 0.00 0.00 0.00 37 1007.8
20260504191621 22 254 8.0 16.1 0.00 0.00 0.00 38 1008.0
20260504184601 22 247 3.2 20.9 0.00 0.00 0.00 41 1008.3
20260504183050 21 305 4.8 16.1 0.00 0.00 0.00 37 1008.3
20260504181548 21 123 3.2 17.7 0.00 0.00 0.00 39 1008.4
20260504180047 21 317 6.4 25.7 0.00 0.00 0.00 38 1008.5
20260504174544 21 219 3.2 12.9 0.00 0.00 0.00 38 1008.6